loading
|
Showing default

TIMATION 1, 2847

Orbit data source: Space-Track

TIMATION 1, 2847 is a payload satellite owned by NRL (US) in LEO that was launched on Wed, 31 May 1967 UTC via a THOR SLV-2 AGENA D launch vehicle from the Air Force Western Test Range (AFWTR). Payloads include a variety of satellites, spacecraft, and rockets equipped with specific instruments for various scientific and technological missions. These include communications satellites like Starlink; space stations such as the ISS; scientific satellites like the Hubble; Earth observation satellites from companies like Planet Labs, Umbra, and HawkEye 360; GPS; miniature CubeSats for education and research; and military/defense satellites.

Loading next visibility...
Next conjunction unknown
Loading greatness...
TIMATION 1 details
Identifier
2847, 1967-053E
Orbit
LEO
Last TLE update10 hours ago
Origin
Flag of USNRL (US)
ManufacturerNRL
MissionDefense Navigation
Bus & MotorTIMATION, Unknown motor
Mass39 kg wet, 39 kg dry
Launch date (UTC)
1967-05-31 (57 years ago)
Launch vehicle
THOR SLV-2 AGENA D
Launch site
Air Force Western Test Range (AFWTR)
Object type
Payload
Rocket body
Debris
Shape & HBRBox, 0.8 m
Radar Cross Section0.285 m², Medium (>0.1 m² and < 1m²)

Expand to show TLE details & history

TLE from 10 hours ago
0 TIMATION 1
1 02847U 67053E   24285.56839804  .00001280  00000-0  86612-3 0  9993
2 02847  69.9634  96.1621 0005165 173.7775 186.3399 14.02529167927733
Epoch: 2024-10-11T13:38Z
Definitive object data (Epoch: 2024-10-11T13:38:29.59Z)
Latitude-0.00002°
Longitude-129.09792°
Altitude891.096 km
Speed7.405 km/s
True Right ascension06h 24m 38s
True Declination0° 00' 00"
Sunlit
Object was in daylight at TLE epoch
Predictive object data (real-time)
Latitude-17.90334°
Longitude-136.74623°
Altitude895.043 km
Speed7.402 km/s
Apparent Right ascension06h 01m 54s
Apparent Declination-28° 03' 07"
Sunlit
Object is in daylight
Predictive observer data (real-time)
Local Sidereal Time18:13:00
Azimuth11.775° NNE
Elevation-77.917°
Doppler factor1
Orbital elements
Apogee886.841 km
Perigee879.341 km
Semi-major axis7,261.228 km
Eccentricity0.0005165
Inclination69.9634°
RAAN96.1621°
Arg. of periapsis173.7775°
True anomaly186.33337°
Mean anomaly186.3399°
Eccentric anomaly186.33663°
Mean motion3.50775 °/min
BSTAR0.00086612
Period102.63 mins
No data available

TIMATION 1 Visibility forecast

Observer location: 39.9160978°, -105.1181434

Span
Click to sort rows by Start time (UTC) header in descending order
Start Az.
Max El. time (UTC)
Max El. Az.
Max El.
End time (UTC)
End Az.
8 mins2024-10-12 12:01:15.448Z155.214° SSE2024-10-12 12:05:15.448Z96.09° ESE27.194°2024-10-12 12:09:15.448Z48.016° ENE
8 mins2024-10-12 13:46:15.448Z244.941° WSW2024-10-12 13:50:15.448Z313.191° NW31.575°2024-10-12 13:54:15.448Z5.403° NNE
6 mins2024-10-12 21:01:15.448Z22.298° NNE2024-10-12 21:03:15.448Z47.58° ENE18.62°2024-10-12 21:07:15.448Z93.152° ESE
9 mins2024-10-12 22:45:15.448Z327.294° NNW2024-10-12 22:49:15.448Z237.477° WSW43.065°2024-10-12 22:54:15.448Z167.526° S